Dewpoint
32 36 38 41 43 45 59 58 58 58 58 57 56 56 56 55 53 52 51 50 50 49 47 47 46 45 44
30 32 37 40 42 43 51 58 58 57 57 56 56 55 55 54 53 51 50 50 47 48 48 47 46 45 44
30 32 35 39 40 41 44 55 58 57 56 56 56 55 54 53 52 50 50 49 48 46 48 47 46 45 44
30 31 33 37 42 41 44 49 57 57 56 56 55 55 54 53 52 50 49 48 47 48 47 47 46 46 44
29 30 32 34 37 40 40 43 57 56 56 55 55 54 53 52 50 49 48 48 48 47 47 46 46 46 45
28 29 30 33 36 38 39 40 52 57 55 54 55 54 53 52 50 48 48 48 48 47 47 46 46 45 45
27 29 31 33 34 36 38 39 38 55 55 53 55 53 53 51 49 48 47 47 47 47 47 46 45 45 45
30 32 32 34 33 34 37 38 39 46 55 51 54 52 52 52 49 47 47 47 46 46 46 45 45 45 44
28 33 35 35 36 34 33 36 37 52 54 51 52 52 52 50 49 47 47 47 46 46 46 45 44 44 44
24 28 33 35 37 35 33 32 35 40 54 51 52 50 49 50 48 47 47 46 46 46 46 45 44 43 42
26 25 29 31 34 34 35 34 35 36 40 43 51 49 45 47 48 47 46 46 46 46 45 44 43 41 40
26 26 27 30 32 34 34 34 37 37 38 39 45 48 45 46 45 47 46 46 45 45 45 44 43 41 40
27 26 28 30 32 33 34 34 35 37 38 40 40 49 47 46 45 45 45 45 45 45 44 43 42 41 39
27 27 28 31 32 33 32 32 32 33 38 39 40 41 47 47 46 45 46 44 45 45 44 43 42 41 39
29 28 27 30 30 32 33 32 31 33 35 37 40 42 43 47 45 46 46 45 45 45 44 42 42 41 39
30 29 27 27 28 31 32 32 32 32 34 37 39 40 41 44 46 46 46 45 45 45 44 42 41 41 40
27 30 28 27 27 28 28 29 29 31 32 37 38 39 39 39 43 46 45 45 45 44 44 43 42 42 41
Wind_Speed
20 19 23 21 22 25 20 37 36 43 40 39 39 41 36 36 36 33 31 30 29 27 25 23 21 20 18
21 22 20 16 18 23 23 36 35 40 39 41 41 41 41 38 38 36 30 31 29 27 25 23 22 21 19
24 16 18 16 21 19 20 18 34 40 40 43 43 42 42 42 39 38 34 30 28 27 25 24 23 22 20
21 18 13 18 10 18 24 30 37 36 38 39 41 43 44 46 41 38 38 33 30 27 27 25 23 22 21
19 16 14 17 14 10 20 23 34 36 35 34 35 34 36 42 40 38 41 36 31 28 29 28 25 22 21
17 17 18 15 16 13 19 17 14 34 32 30 35 35 33 33 41 43 43 40 34 30 30 29 27 24 22
20 18 15 6 11 15 19 14 22 32 34 31 32 34 32 32 41 45 44 44 39 33 32 31 29 25 24
23 19 17 11 15 16 18 18 25 24 38 29 33 33 31 30 41 41 42 45 45 39 35 32 30 27 26
28 22 21 23 17 10 12 12 17 16 41 28 26 28 30 29 34 42 40 41 44 41 38 35 32 28 24
16 20 20 17 17 13 9 11 12 17 33 29 31 24 18 24 32 32 32 38 42 43 39 36 34 24 19
16 15 15 16 15 9 11 10 13 11 10 9 36 26 12 19 29 31 31 29 27 34 41 41 38 29 22
15 14 14 15 14 11 12 11 13 15 15 14 6 35 17 24 23 26 29 28 27 27 26 28 37 36 30
16 14 13 10 11 12 11 10 14 11 10 9 11 18 33 29 28 31 31 26 27 28 25 28 28 25 20
17 14 12 11 11 9 8 9 11 10 6 7 7 10 20 28 30 33 32 22 29 27 27 24 25 27 26
17 15 15 13 12 12 12 10 12 5 5 4 4 5 5 22 30 32 33 25 31 28 23 25 25 27 27
12 17 17 16 13 8 8 5 8 8 7 7 6 1 1 5 14 32 30 27 32 29 24 27 24 24 26
16 12 17 15 17 13 12 10 10 6 7 9 12 7 6 15 5 11 30 26 28 29 30 29 30 30 28
Wind_Direction
284 306 314 323 323 330 221 177 181 178 175 170 170 166 167 163 162 163 166 162 161 164 166 160 155 148 145
287 302 303 313 319 314 320 179 183 181 171 170 169 168 161 161 164 161 164 164 171 169 166 162 158 155 153
282 290 299 312 320 312 299 266 180 178 168 170 170 166 164 162 164 160 160 162 170 172 163 158 161 160 159
271 282 283 283 294 303 310 303 177 175 173 172 170 167 168 162 164 163 158 163 168 168 161 159 163 163 162
270 277 276 278 276 301 301 311 174 170 173 174 173 171 170 167 163 163 160 163 168 169 162 160 165 166 165
258 257 269 272 286 290 293 311 208 175 172 175 173 177 174 173 172 168 163 162 166 167 164 165 168 167 165
256 255 266 259 281 287 293 313 295 172 174 175 176 175 174 177 175 168 166 162 166 171 168 168 170 168 164
253 248 245 254 263 281 291 303 293 269 174 173 174 172 171 174 172 173 171 166 166 171 171 171 172 169 165
250 251 250 243 240 267 279 309 310 235 173 165 169 164 171 170 175 173 174 171 168 172 172 171 173 169 167
249 252 256 265 263 238 264 273 287 294 173 167 165 154 170 170 173 177 175 175 171 172 173 173 171 171 173
239 238 234 239 246 231 247 250 273 276 2 350 167 161 133 154 170 176 179 178 176 178 176 173 173 174 172
237 226 230 231 229 218 226 255 272 278 315 339 194 166 144 160 170 172 179 177 178 178 181 180 177 179 178
218 228 229 227 218 229 215 235 261 269 287 311 342 178 158 169 166 170 172 177 179 175 176 179 182 182 177
222 213 210 209 212 210 209 220 255 278 248 269 309 333 172 167 163 168 175 176 179 177 177 178 180 187 187
208 201 204 195 205 201 213 199 221 197 186 218 247 289 330 163 166 172 172 173 178 174 171 176 186 189 190
237 197 196 196 198 195 212 192 198 180 178 160 156 135 79 71 174 170 175 173 174 174 175 180 187 194 197
207 220 192 189 196 194 201 214 237 230 183 150 172 172 166 160 154 186 171 173 171 174 181 185 191 195 194